Location: D�derode
(51.8092°N, 10.1065°E)
Time: 05:31:50
(UTC+00:00)

CZ-2C R/B - Pass Details

Date: 01 December 2020
Orbit: 705 x 907 km, 98.1° (Epoch: 23 January)

Event Time Altitude Azimuth Distance (km) Brightness Sun altitude
Rises 17:15:17 0° 150° (SSE) 3,206 6.1 -18.0°
Reaches altitude 10° 17:17:39 10° 147° (SSE) 2,258 5.2 -18.4°
Maximum altitude 17:22:28 56° 70° (ENE) 863 2.9 -19.1°
Drops below altitude 10° 17:27:09 10° 353° (N) 2,200 5.3 -19.8°
Sets 17:29:25 0° 349° (N) 3,115 6.2 -20.2°
